SCP
-0 0 0 -0 -0 -0 -0 -0 -0 -0 -0 -0 -0 -0 0 0 0 0 -0 0 0 0 0 0 0 0 -0 -0 -0 -0 -0 -0
-0 0 0 -0 -0 -0 -0 -0 -0 -0 -0 -0 -0 -0 0 0 0 0 0 0 0 0 0 0 0 0 0 -0 -0 -0 -0 -0
-0 -0 0 0 -0 -0 -0 -0 -0 -0 -0 -0 0 0 0 0 0 0 0 0 0 0 0 0 0 0 0 0 -0 -0 0 0
-0 -0 0 0 0 0 0 0 0 -0 0 0 0 0 0 0 0 0 0 0 0 0 0 0 0 0 0 0 0 -0 -0 -0
-0 -0 0 0 0 0 0 0 0 0 0 0 0 0 0 0 0 0 0 0 0 0 0 0 0 0 0 0 0 0 -0 -0
0 0 0 0 0 0 0 0 0 0 0 0 0 0 0 0 0 0 0 0 0 0 0 0 0 0 0 0 0 0 -0 0
0 0 0 0 0 0 0 0 0 0 0 0 0 0 0 -0 0 0 0 0 0 0 0 0 0 0 0 0 0 0 0 0
0 0 0 0 0 0 0 0 0 0 0 0 0 0 -0 -0 0 0 0 0 0 0 0 0 0 0 0 0 0 0 0 0
0 0 -0 0 0 0 0 0 0 0 0 0 0 0 0 0 0 0 0 0 0 0 0 0 0 0 0 0 0 0 0 0
0 -0 -0 -0 -0 0 0 0 0 0 0 0 0 0 0 0 0 0 0 0 0 0 0 0 0 0 0 0 0 0 0 0
-0 -0 -0 -0 0 0 0 0 0 0 0 0 0 0 0 0 0 0 0 0 0 0 0 0 0 0 0 0 0 0 0 0
-0 -0 -0 0 0 0 0 0 0 0 0 0 0 0 0 0 0 0 0 0 0 0 0 0 0 0 0 0 0 -0 0 0
-0 0 -0 0 0 0 1 1 1 1 0 0 0 1 0 0 1 1 1 0 0 0 0 0 0 0 0 0 0 0 0 0
0 1 1 1 1 1 1 1 1 1 1 1 1 1 1 1 1 1 1 0 0 0 0 0 0 0 0 0 0 0 0 0
0 -0 2 3 1 1 2 1 1 1 1 1 1 1 1 2 1 1 1 1 0 1 0 0 0 0 1 0 0 0 0 0
0 -0 2 4 3 3 2 2 2 1 0 0 1 1 1 2 3 2 1 2 1 1 1 1 0 0 0 1 0 0 0 0
1 1 2 4 6 4 3 2 2 1 1 1 1 1 2 2 3 3 2 2 1 2 1 1 1 1 1 1 0 0 0 0
2 2 2 2 3 2 2 3 2 2 2 1 1 1 1 2 3 2 3 3 2 2 2 2 1 1 1 1 1 0 0 0
4 5 5 4 1 1 1 2 2 3 2 2 2 2 2 3 3 4 3 3 3 2 2 2 1 2 1 1 1 0 0 0
Wind_Speed_500mb
55 54 52 49 45 40 35 32 28 26 24 23 23 21 20 20 20 19 19 18 17 17 17 18 22 24 28 31 34 35 32 25
58 55 53 48 45 41 37 33 30 26 24 23 21 20 19 19 18 17 16 15 14 14 11 12 14 18 21 24 28 28 28 22
53 56 53 50 44 41 37 34 31 27 24 22 20 18 16 16 15 14 12 11 9 8 8 8 7 10 13 16 19 19 26 20
37 49 51 50 45 42 40 38 34 30 26 23 20 18 15 14 13 12 10 9 6 4 4 4 2 3 5 8 11 14 18 18
37 30 48 51 49 44 42 39 36 32 28 23 21 18 15 12 10 10 8 6 4 1 1 1 4 4 4 3 4 10 17 20
36 23 49 48 47 45 43 41 37 33 30 27 23 20 17 13 9 7 7 4 1 2 5 4 7 9 9 6 3 6 11 16
37 26 37 44 45 43 42 40 39 36 32 28 23 20 17 13 11 4 6 2 8 10 11 11 9 10 13 6 12 10 11 18
38 37 27 46 47 46 44 40 38 33 32 29 26 23 19 18 13 8 7 2 9 17 7 13 6 8 15 6 11 11 10 14
50 36 26 26 35 39 34 31 29 31 33 29 27 26 26 22 17 21 20 13 8 7 11 11 13 7 7 6 15 17 15 12
49 50 45 33 32 37 32 28 21 19 31 18 22 23 26 33 27 27 28 21 13 21 16 15 9 11 12 8 10 21 17 20
28 62 68 46 41 47 40 35 26 17 21 16 15 13 12 26 39 33 33 35 29 25 21 18 16 15 17 19 23 21 21 22
84 75 78 51 44 46 48 33 35 20 15 25 25 22 21 24 31 40 36 35 37 34 23 24 19 19 30 30 25 26 26 22
73 89 61 44 45 37 63 51 43 40 33 32 32 34 37 38 38 38 45 48 38 34 36 37 33 42 38 35 29 32 20 29
70 46 46 46 42 36 34 64 53 49 49 47 45 48 47 51 51 44 52 52 47 42 43 44 39 31 39 35 34 31 30 33
40 37 50 44 37 32 28 29 56 61 56 50 46 50 51 55 55 51 47 56 52 51 50 51 43 39 37 37 38 33 34 27
36 44 51 46 40 37 34 37 35 44 50 54 52 45 62 59 60 59 58 50 50 60 56 57 49 42 40 45 44 38 39 37
54 53 43 40 42 41 45 41 38 32 35 43 42 48 51 60 64 66 66 60 53 58 54 55 47 48 47 49 48 35 34 35
44 50 52 50 50 54 54 41 31 30 30 36 49 50 53 56 68 73 70 65 51 56 58 51 49 54 57 52 43 30 15 21
29 35 44 49 51 48 49 53 51 53 53 50 48 43 54 65 64 72 71 70 59 55 61 55 53 48 52 51 50 51 45 28
Wind_Direction_500mb
164 160 160 159 157 155 151 145 144 140 134 126 119 121 123 122 119 117 112 112 113 104 94 87 84 84 84 92 95 94 91 88
165 163 161 162 162 159 155 153 150 147 142 137 133 133 132 130 126 123 120 121 120 116 107 93 85 85 89 95 105 105 105 101
162 167 165 164 165 163 160 157 155 154 151 147 145 141 140 136 131 131 124 114 116 124 132 115 103 94 95 102 116 119 113 105
164 172 170 167 169 169 165 163 161 160 160 158 154 154 151 150 145 145 140 134 129 101 131 133 149 127 119 113 111 115 130 127
177 184 181 173 172 172 170 168 168 164 165 163 168 166 165 167 162 164 163 153 135 88 20 325 254 242 234 208 122 116 155 152
177 191 187 180 176 177 175 174 175 172 171 174 179 177 181 181 181 196 185 194 215 279 273 291 285 274 268 260 195 160 164 179
177 188 195 187 183 181 183 183 182 180 182 183 183 187 190 190 172 183 179 356 326 318 301 300 297 313 304 296 207 173 160 323
192 193 193 192 189 189 189 189 191 188 194 194 193 193 195 200 192 251 304 63 40 5 316 325 322 65 51 35 290 266 284 14
175 196 197 187 186 192 181 195 205 203 205 205 208 203 198 211 215 231 269 255 268 330 342 348 349 340 329 322 309 325 317 288
161 192 201 197 185 190 193 203 219 235 216 199 226 218 212 201 207 225 253 246 259 260 261 272 296 327 299 283 294 298 303 300
248 193 202 197 189 195 198 203 221 231 201 204 237 231 221 220 209 210 239 240 250 246 247 268 261 294 268 272 269 260 262 273
160 183 198 197 197 200 206 202 207 209 221 235 243 252 253 250 232 225 235 239 237 242 245 246 238 253 242 262 283 261 259 266
185 191 185 197 199 206 204 198 195 201 209 226 223 247 254 252 254 252 233 240 240 241 235 240 239 241 245 255 260 268 256 256
167 170 190 201 211 216 206 210 205 200 205 214 226 231 239 248 249 250 253 238 237 235 238 243 246 241 238 255 253 258 266 255
207 199 188 197 214 227 233 224 218 217 211 216 223 226 232 245 258 258 262 252 230 233 240 242 243 240 246 248 251 260 274 255
184 194 202 199 201 220 228 232 237 225 221 225 228 235 229 244 254 257 262 261 243 228 239 250 254 242 240 249 256 265 272 273
177 186 193 200 208 220 238 244 242 249 252 234 242 241 236 237 246 253 259 260 251 235 242 248 250 247 246 246 250 257 266 261
189 187 195 197 203 207 215 230 243 247 249 244 246 252 246 244 245 251 256 259 257 238 240 249 249 246 253 258 251 242 227 237
175 192 201 203 206 210 214 216 226 231 238 245 250 258 264 254 256 257 259 259 257 242 241 244 249 251 257 259 261 250 243 242
Wind_Speed_850mb
55 54 52 49 45 40 35 32 28 26 24 23 23 21 20 20 20 19 19 18 17 17 17 18 22 24 28 31 34 35 32 25
58 55 53 48 45 41 37 33 30 26 24 23 21 20 19 19 18 17 16 15 14 14 11 12 14 18 21 24 28 28 28 22
53 56 53 50 44 41 37 34 31 27 24 22 20 18 16 16 15 14 12 11 9 8 8 8 7 10 13 16 19 19 26 20
37 49 51 50 45 42 40 38 34 30 26 23 20 18 15 14 13 12 10 9 6 4 4 4 2 3 5 8 11 14 18 18
37 30 48 51 49 44 42 39 36 32 28 23 21 18 15 12 10 10 8 6 4 1 1 1 4 4 4 3 4 10 17 20
36 23 49 48 47 45 43 41 37 33 30 27 23 20 17 13 9 7 7 4 1 2 5 4 7 9 9 6 3 6 11 16
37 26 37 44 45 43 42 40 39 36 32 28 23 20 17 13 11 4 6 2 8 10 11 11 9 10 13 6 12 10 11 18
38 37 27 46 47 46 44 40 38 33 32 29 26 23 19 18 13 8 7 2 9 17 7 13 6 8 15 6 11 11 10 14
50 36 26 26 35 39 34 31 29 31 33 29 27 26 26 22 17 21 20 13 8 7 11 11 13 7 7 6 15 17 15 12
49 50 45 33 32 37 32 28 21 19 31 18 22 23 26 33 27 27 28 21 13 21 16 15 9 11 12 8 10 21 17 20
28 62 68 46 41 47 40 35 26 17 21 16 15 13 12 26 39 33 33 35 29 25 21 18 16 15 17 19 23 21 21 22
84 75 78 51 44 46 48 33 35 20 15 25 25 22 21 24 31 40 36 35 37 34 23 24 19 19 30 30 25 26 26 22
73 89 61 44 45 37 63 51 43 40 33 32 32 34 37 38 38 38 45 48 38 34 36 37 33 42 38 35 29 32 20 29
70 46 46 46 42 36 34 64 53 49 49 47 45 48 47 51 51 44 52 52 47 42 43 44 39 31 39 35 34 31 30 33
40 37 50 44 37 32 28 29 56 61 56 50 46 50 51 55 55 51 47 56 52 51 50 51 43 39 37 37 38 33 34 27
36 44 51 46 40 37 34 37 35 44 50 54 52 45 62 59 60 59 58 50 50 60 56 57 49 42 40 45 44 38 39 37
54 53 43 40 42 41 45 41 38 32 35 43 42 48 51 60 64 66 66 60 53 58 54 55 47 48 47 49 48 35 34 35
44 50 52 50 50 54 54 41 31 30 30 36 49 50 53 56 68 73 70 65 51 56 58 51 49 54 57 52 43 30 15 21
29 35 44 49 51 48 49 53 51 53 53 50 48 43 54 65 64 72 71 70 59 55 61 55 53 48 52 51 50 51 45 28
Wind_Direction_850mb
164 160 160 159 157 155 151 145 144 140 134 126 119 121 123 122 119 117 112 112 113 104 94 87 84 84 84 92 95 94 91 88
165 163 161 162 162 159 155 153 150 147 142 137 133 133 132 130 126 123 120 121 120 116 107 93 85 85 89 95 105 105 105 101
162 167 165 164 165 163 160 157 155 154 151 147 145 141 140 136 131 131 124 114 116 124 132 115 103 94 95 102 116 119 113 105
164 172 170 167 169 169 165 163 161 160 160 158 154 154 151 150 145 145 140 134 129 101 131 133 149 127 119 113 111 115 130 127
177 184 181 173 172 172 170 168 168 164 165 163 168 166 165 167 162 164 163 153 135 88 20 325 254 242 234 208 122 116 155 152
177 191 187 180 176 177 175 174 175 172 171 174 179 177 181 181 181 196 185 194 215 279 273 291 285 274 268 260 195 160 164 179
177 188 195 187 183 181 183 183 182 180 182 183 183 187 190 190 172 183 179 356 326 318 301 300 297 313 304 296 207 173 160 323
192 193 193 192 189 189 189 189 191 188 194 194 193 193 195 200 192 251 304 63 40 5 316 325 322 65 51 35 290 266 284 14
175 196 197 187 186 192 181 195 205 203 205 205 208 203 198 211 215 231 269 255 268 330 342 348 349 340 329 322 309 325 317 288
161 192 201 197 185 190 193 203 219 235 216 199 226 218 212 201 207 225 253 246 259 260 261 272 296 327 299 283 294 298 303 300
248 193 202 197 189 195 198 203 221 231 201 204 237 231 221 220 209 210 239 240 250 246 247 268 261 294 268 272 269 260 262 273
160 183 198 197 197 200 206 202 207 209 221 235 243 252 253 250 232 225 235 239 237 242 245 246 238 253 242 262 283 261 259 266
185 191 185 197 199 206 204 198 195 201 209 226 223 247 254 252 254 252 233 240 240 241 235 240 239 241 245 255 260 268 256 256
167 170 190 201 211 216 206 210 205 200 205 214 226 231 239 248 249 250 253 238 237 235 238 243 246 241 238 255 253 258 266 255
207 199 188 197 214 227 233 224 218 217 211 216 223 226 232 245 258 258 262 252 230 233 240 242 243 240 246 248 251 260 274 255
184 194 202 199 201 220 228 232 237 225 221 225 228 235 229 244 254 257 262 261 243 228 239 250 254 242 240 249 256 265 272 273
177 186 193 200 208 220 238 244 242 249 252 234 242 241 236 237 246 253 259 260 251 235 242 248 250 247 246 246 250 257 266 261
189 187 195 197 203 207 215 230 243 247 249 244 246 252 246 244 245 251 256 259 257 238 240 249 249 246 253 258 251 242 227 237
175 192 201 203 206 210 214 216 226 231 238 245 250 258 264 254 256 257 259 259 257 242 241 244 249 251 257 259 261 250 243 242